sat.trackr.live / text

‹ back to catalog

STARLINK-1597

NORAD 46142 · 2020-057AB

PAYLOAD ACTIVE UNKNOWN

§ Identity

Operator
Country
US
Launch date
2020-08-18
Launch site
AFETR
Launch vehicle
Mass (kg)
RCS (m²)

Purposes: comms

External: N2YO · Heavens-Above · Gunter

§ Orbital elements

Epoch: 2026-05-24T19:20:42.365760Z

Period
91.65 min
Inclination
53.0428°
Eccentricity
0.0002097
Mean motion
15.71129117 rev/d
Perigee alt
354.3 km
Apogee alt
357.1 km
Semi-major
6,733.8 km
B*
7.3511e-4
RAAN
283.6765°
Arg perigee
22.2105°
Mean anomaly
337.9002°
Rev number
31,825

§ Raw data

STARLINK-15971 46142U 20057AB  26144.80604590  .00094993  00000+0  73511-3 0  99932 46142  53.0428 283.6765 0002097  22.2105 337.9002 15.71129117318256

JSON: /api/v1/satellites/46142 · /tle

For live sub-satellite position, see the globe view (requires WebGL).

§ Visibility from observer

Set your observer location to see the next 7 days of passes ≥ 10°. The values pass through the URL so the page stays shareable.

No JS? Fill the form by hand. The geolocation button needs JavaScript.